TimeEDT,TemperatureF,Dew PointF,Humidity,Sea Level PressureIn,VisibilityMPH,Wind Direction,Wind SpeedMPH,Gust SpeedMPH,PrecipitationIn,Events,Conditions,WindDirDegrees,DateUTC
12:42 AM,73.4,71.6,94,29.92,6.0,Calm,Calm,-,0.01,Rain,Light Rain,0,2013-07-12 04:42:00
12:54 AM,73.9,72.0,93,29.91,6.0,Calm,Calm,-,0.02,Rain,Light Rain,0,2013-07-12 04:54:00
1:54 AM,73.0,72.0,96,29.91,6.0,SSW,3.5,-,0.03,Rain,Light Rain,200,2013-07-12 05:54:00
2:15 AM,73.4,71.6,94,29.92,7.0,SW,6.9,-,0.00,,Scattered Clouds,230,2013-07-12 06:15:00
2:54 AM,73.0,72.0,96,29.90,9.0,WSW,4.6,-,0.00,,Partly Cloudy,250,2013-07-12 06:54:00
3:20 AM,73.4,71.6,94,29.89,9.0,Calm,Calm,-,N/A,,Mostly Cloudy,0,2013-07-12 07:20:00
3:54 AM,73.0,72.0,96,29.88,8.0,Calm,Calm,-,N/A,,Scattered Clouds,0,2013-07-12 07:54:00
4:08 AM,73.4,71.6,94,29.88,7.0,South,3.5,-,N/A,,Mostly Cloudy,170,2013-07-12 08:08:00
4:49 AM,73.4,71.6,94,29.88,9.0,Calm,Calm,-,N/A,,Scattered Clouds,0,2013-07-12 08:49:00
4:54 AM,73.0,71.1,93,29.87,9.0,Calm,Calm,-,N/A,,Scattered Clouds,0,2013-07-12 08:54:00
5:10 AM,73.4,71.6,94,29.89,7.0,South,4.6,-,N/A,,Mostly Cloudy,190,2013-07-12 09:10:00
5:40 AM,73.4,71.6,94,29.89,9.0,South,3.5,-,N/A,,Mostly Cloudy,180,2013-07-12 09:40:00
5:54 AM,73.0,71.1,93,29.90,9.0,Calm,Calm,-,N/A,,Partly Cloudy,0,2013-07-12 09:54:00
6:54 AM,73.0,71.1,93,29.92,3.0,Calm,Calm,-,0.01,Rain,Light Rain,0,2013-07-12 10:54:00
7:54 AM,73.0,71.1,93,29.92,5.0,Calm,Calm,-,0.03,Rain,Light Rain,0,2013-07-12 11:54:00
8:54 AM,73.9,71.1,91,29.91,8.0,Calm,Calm,-,0.02,Rain,Light Rain,0,2013-07-12 12:54:00
9:54 AM,75.0,72.0,90,29.93,10.0,SSE,4.6,-,0.01,,Scattered Clouds,160,2013-07-12 13:54:00
10:04 AM,75.2,71.6,89,29.93,10.0,SSE,3.5,-,N/A,,Mostly Cloudy,150,2013-07-12 14:04:00
10:22 AM,75.2,71.6,89,29.94,10.0,South,3.5,-,N/A,,Mostly Cloudy,190,2013-07-12 14:22:00
10:54 AM,75.0,72.0,90,29.94,10.0,Calm,Calm,-,N/A,,Overcast,0,2013-07-12 14:54:00
11:01 AM,75.2,71.6,89,29.94,10.0,Calm,Calm,-,N/A,,Overcast,0,2013-07-12 15:01:00
11:18 AM,75.2,73.4,94,29.94,10.0,SSE,4.6,-,N/A,,Mostly Cloudy,150,2013-07-12 15:18:00
11:25 AM,75.2,71.6,89,29.94,10.0,SSE,3.5,-,N/A,,Mostly Cloudy,160,2013-07-12 15:25:00
11:37 AM,77.0,73.4,89,29.93,10.0,SE,3.5,-,N/A,,Mostly Cloudy,130,2013-07-12 15:37:00
11:45 AM,77.0,73.4,89,29.94,10.0,Calm,Calm,-,N/A,,Overcast,0,2013-07-12 15:45:00
11:54 AM,77.0,72.0,84,29.93,10.0,SSE,3.5,-,N/A,,Overcast,160,2013-07-12 15:54:00
11:56 AM,77.0,73.4,89,29.93,10.0,SE,3.5,-,N/A,,Overcast,140,2013-07-12 15:56:00
12:09 PM,77.0,71.6,83,29.93,10.0,Calm,Calm,-,N/A,,Overcast,0,2013-07-12 16:09:00
12:16 PM,77.0,73.4,89,29.93,10.0,SE,5.8,-,N/A,,Overcast,140,2013-07-12 16:16:00
12:54 PM,78.1,72.0,81,29.93,10.0,South,4.6,-,N/A,,Mostly Cloudy,170,2013-07-12 16:54:00
1:32 PM,78.8,73.4,83,29.93,10.0,SSE,6.9,-,N/A,,Scattered Clouds,150,2013-07-12 17:32:00
1:54 PM,80.1,73.0,79,29.92,10.0,ESE,6.9,-,N/A,,Scattered Clouds,110,2013-07-12 17:54:00
2:01 PM,80.6,73.4,79,29.93,10.0,ESE,4.6,-,N/A,,Mostly Cloudy,110,2013-07-12 18:01:00
2:40 PM,80.6,71.6,74,29.92,10.0,SSE,6.9,-,N/A,,Overcast,160,2013-07-12 18:40:00
2:54 PM,80.1,72.0,76,29.91,10.0,SE,8.1,-,N/A,Thunderstorm,Mostly Cloudy,140,2013-07-12 18:54:00
3:05 PM,80.6,71.6,74,29.91,10.0,SE,10.4,-,N/A,Thunderstorm,Mostly Cloudy,130,2013-07-12 19:05:00
3:22 PM,80.6,71.6,74,29.92,10.0,SE,8.1,-,N/A,,Mostly Cloudy,140,2013-07-12 19:22:00
3:54 PM,80.1,72.0,76,29.92,10.0,SE,11.5,-,N/A,,Mostly Cloudy,140,2013-07-12 19:54:00
4:16 PM,78.8,71.6,78,29.92,10.0,SE,9.2,-,N/A,Thunderstorm,Mostly Cloudy,130,2013-07-12 20:16:00
4:44 PM,78.8,71.6,78,29.93,10.0,East,4.6,-,N/A,Thunderstorm,Thunderstorm,100,2013-07-12 20:44:00
4:54 PM,78.1,71.1,79,29.93,10.0,Variable,3.5,-,N/A,Thunderstorm,Thunderstorm,0,2013-07-12 20:54:00
5:02 PM,75.2,69.8,83,29.94,2.5,WNW,6.9,-,0.03,Rain-Thunderstorm,Heavy Thunderstorms and Rain,290,2013-07-12 21:02:00
5:12 PM,73.4,69.8,88,29.93,2.0,NE,4.6,-,0.06,Rain,Rain,50,2013-07-12 21:12:00
5:24 PM,73.4,71.6,94,29.93,1.8,East,3.5,-,0.10,Rain,Rain,80,2013-07-12 21:24:00
5:29 PM,73.4,71.6,94,29.93,3.0,Calm,Calm,-,0.10,Rain,Light Rain,0,2013-07-12 21:29:00
5:45 PM,75.2,71.6,89,29.92,8.0,East,5.8,-,0.11,Rain,Light Rain,100,2013-07-12 21:45:00
5:54 PM,75.9,72.0,87,29.92,8.0,South,3.5,-,0.11,Rain,Light Rain,180,2013-07-12 21:54:00
6:54 PM,77.0,72.0,84,29.93,10.0,NE,4.6,-,0.01,,Partly Cloudy,50,2013-07-12 22:54:00
7:54 PM,75.9,72.0,87,29.95,10.0,ENE,3.5,-,N/A,,Clear,60,2013-07-12 23:54:00
8:34 PM,75.2,73.4,94,29.97,10.0,Calm,Calm,-,N/A,,Mostly Cloudy,0,2013-07-13 00:34:00
8:54 PM,75.0,73.0,94,29.97,10.0,NE,3.5,-,N/A,,Overcast,40,2013-07-13 00:54:00
9:54 PM,73.9,72.0,93,29.97,10.0,SE,4.6,-,N/A,,Clear,140,2013-07-13 01:54:00
10:54 PM,73.9,71.1,91,29.98,10.0,ENE,4.6,-,N/A,,Clear,60,2013-07-13 02:54:00
11:54 PM,73.0,71.1,93,29.97,10.0,ENE,6.9,-,N/A,,Partly Cloudy,70,2013-07-13 03:54:00